#timestamp,LO_Frequency,Hit,StdDev 
1516302015.5,286046990.3,N
1516302035.3,286046992.9,N
1516302055.1,286046992.6,N
1516302075.9,286046991.9,N
1516302095.7,286046993.1,N
1516302115.5,286046990.4,N
1516302135.4,286046989.6,N
1516302155.2,286046989.1,Y
1516302175.1,286046995.8,P
1516302176.0,286046995.8,P
1516302195.8,286046997.4,N
1516302215.6,286046999.4,N
1516302235.5,286046996.9,N
1516302255.3,286046996.5,N
1516302275.1,286046998.6,N
1516302295.9,286047001.0,N
1516302315.7,286046999.8,N
1516302335.6,286047004.1,N
1516302355.4,286047003.3,N
1516302375.2,286047002.3,N
1516302395.1,286047001.4,N
1516302396.0,286047001.4,N
1516302415.8,286047002.6,N
1516302435.7,286047004.3,N
1516302455.5,286047001.5,N
1516302475.3,286046999.8,N
1516302495.2,286047001.3,N
1516302515.0,286047004.4,N
1516302515.9,286047004.4,N
1516302535.8,286047000.1,N
1516302555.6,286046999.5,N
1516302575.4,286046997.1,N
1516302595.3,286046999.6,N
1516302615.1,286046999.5,N
1516302635.8,286047001.2,N
1516302655.7,286046999.6,N
1516302675.5,286046997.0,N
1516302695.4,286046997.3,N
1516302715.2,286046996.7,N
1516302735.0,286046994.9,N
1516302735.9,286046994.9,N
1516302755.8,286046995.5,N
1516302775.6,286046995.2,N
1516302795.4,286046999.2,N
1516302815.3,286046999.6,N
1516302835.1,286046999.1,N
1516302855.9,286046999.2,N
1516302875.7,286047001.8,N
1516302895.5,286047003.8,N
1516302915.4,286047003.9,N
1516302935.2,286047005.7,N
1516302955.0,286047004.0,N
1516302955.9,286047004.0,N
1516302975.8,286047004.4,N
1516302995.6,286047003.9,N
1516303015.5,286046999.7,N
1516303035.3,286047000.1,N
1516303055.1,286047002.4,N
1516303075.9,286046999.8,N
1516303095.7,286047002.2,N
1516303115.5,286047003.5,N
1516303135.4,286047004.1,N
1516303155.2,286047004.4,N
1516303175.1,286047001.4,N
1516303176.0,286047001.4,N
1516303195.8,286047004.2,N
1516303215.6,286047005.8,N
1516303265.5,286046999.9,E
1516303275.4,286047000.2,N
1516303295.3,286047003.2,P
1516303315.1,286047001.6,N
1516303335.8,286047002.2,N
1516303355.7,286047002.5,N
1516303375.5,286047000.4,N
1516303395.4,286046998.8,N
1516303415.2,286046999.2,N
1516303435.0,286046998.2,N
1516303435.9,286046998.2,N
1516303455.8,286046999.1,N
1516303475.6,286046998.4,N
1516303495.4,286046997.4,N
1516303515.3,286046995.0,N
1516303535.1,286046997.5,N
1516303555.9,286046995.7,N
1516303575.7,286046998.0,N
1516303595.5,286046998.7,N
1516303615.4,286047002.9,N
1516303635.2,286047007.2,Y
1516303655.1,286047004.8,P
1516303656.0,286047004.8,N
1516303675.8,286047004.8,N
1516303695.6,286047007.6,Y
1516303715.5,286046999.7,P
1516303735.3,286047000.3,N
1516303755.2,286047001.0,N
1516303775.9,286047002.5,N
1516303795.7,286047000.5,N
1516303815.6,286046996.9,N
1516303835.4,286046997.8,N
1516303855.2,286047000.5,N
1516303875.1,286047004.4,N
1516303876.0,286047004.4,N
1516303895.8,286047000.1,N
1516303915.7,286047000.7,N
1516303935.5,286046998.2,N
1516303955.3,286046998.2,N
1516303975.2,286046998.1,N
1516303995.0,286047000.0,N
1516303995.9,286047000.0,N
1516304015.7,286047001.0,N
1516304035.6,286047001.2,N
1516304055.4,286046997.3,N
1516304075.3,286046997.7,N
1516304095.1,286046995.1,N
1516304096.0,286046995.1,N
1516304115.8,286046995.5,N
1516304135.7,286046995.4,N
1516304155.5,286046995.9,N
1516304175.3,286046996.2,N
1516304195.2,286046996.4,N
1516304215.0,286046995.3,N
1516304215.9,286046995.3,N
1516304235.8,286046996.7,N
1516304255.6,286046998.3,N
1516304275.4,286046999.1,N
1516304295.3,286046997.9,N
1516304315.1,286046995.4,N
1516304335.8,286046997.5,N
1516304355.7,286046998.0,N
1516304375.5,286046994.9,N
1516304395.4,286046997.7,N
1516304415.2,286046996.7,N
1516304435.0,286046997.7,N
1516304435.9,286046997.7,N
1516304455.8,286046996.4,N
1516304475.6,286046994.1,Y
1516304495.5,286046995.2,P
1516304515.3,286046996.6,P
1516304535.1,286046996.7,P
1516304555.9,286046997.0,Y
1516304575.7,286047000.4,P
1516304595.6,286047003.0,N
1516304615.4,286047005.1,N
1516304635.2,286047007.2,N
1516304655.1,286047005.7,N
1516304656.0,286047005.7,N
1516304675.8,286047005.9,N
1516304695.7,286047003.7,N
1516304715.5,286047003.6,N
1516304735.3,286047002.1,N
1516304755.2,286047002.3,N
1516304775.0,286047002.0,N
1516304775.9,286047002.0,N
1516304795.7,286046999.7,N
1516304815.6,286047002.4,N
1516304835.4,286047003.9,N
1516304855.3,286047002.5,N
1516304875.1,286047002.4,N
1516304895.8,286047000.2,N
1516304915.7,286047000.3,N
1516304935.5,286046998.3,N
1516304955.3,286046998.1,N
1516304975.2,286047002.1,N
1516304995.0,286047005.8,N
1516304995.9,286047005.8,N
1516305015.8,286047005.7,N
1516305035.6,286047005.3,N
1516305055.4,286047001.3,N
1516305075.3,286047002.6,N
1516305095.1,286047001.3,N
1516305115.9,286047002.5,N
1516305135.7,286047000.4,N
1516305155.5,286047000.5,N
1516305175.4,286046999.7,N
1516305195.2,286047001.7,N
1516305215.0,286046999.8,N
1516305215.9,286046999.8,N
1516305235.8,286047000.0,N
1516305255.6,286047001.1,N
1516305275.5,286047000.5,N
1516305295.3,286047000.3,N
1516305315.1,286046998.5,N
1516305335.9,286046998.5,N
1516305355.7,286047002.7,N
1516305375.5,286047002.3,N
1516305395.4,286047003.1,N
1516305415.2,286047003.4,N
1516305435.1,286047003.7,N
1516305436.0,286047003.7,N
1516305455.8,286047001.8,N
1516305475.6,286047002.6,N
1516305495.5,286047002.6,N
1516305515.3,286046999.9,N
1516305535.1,286046999.9,N
1516305555.9,286047000.0,N
1516305575.7,286046999.9,N
1516305595.6,286047000.9,N
